Location: ??
(35.4032°N, 139.3073°E)
Time: 11:38:13
(UTC+00:00)

Cosmos 1842 - Pass Details

Date: 13 April 2024
Orbit: 485 x 498 km, 82.5° (Epoch: 21 May)

Event Time Altitude Azimuth Distance (km) Brightness Sun altitude
Rises 19:43:04 0° 204° (SSW) 2,568 6.3 -6.5°
Reaches altitude 10° 19:45:18 10° 214° (SSW) 1,693 5.4 -6.1°
Maximum altitude 19:48:42 34° 280° (W) 835 3.8 -5.4°
Drops below altitude 10° 19:52:09 10° 347° (NNW) 1,713 5.9 -4.7°
Sets 19:54:26 0° 357° (N) 2,603 6.9 -4.3°
